QPF
0.00 0.00 0.00 0.00 0.00 0.00 0.00 0.00 0.00 0.00 0.00 0.00 0.00 0.00 0.00 0.00 0.00 0.00 0.00 0.00 0.00 0.00
0.00 0.00 0.00 0.00 0.00 0.00 0.00 0.00 0.00 0.00 0.00 0.00 0.00 0.00 0.00 0.00 0.00 0.00 0.00 0.00 0.00 0.00
0.00 0.00 0.00 0.00 0.00 0.00 0.00 0.00 0.00 0.00 0.00 0.00 0.00 0.00 0.00 0.00 0.00 0.00 0.00 0.00 0.00 0.00
0.00 0.00 0.00 0.00 0.00 0.00 0.00 0.00 0.00 0.00 0.00 0.00 0.00 0.00 0.00 0.00 0.00 0.00 0.00 0.00 0.00 0.00
0.00 0.00 0.00 0.00 0.00 0.00 0.00 0.00 0.00 0.00 0.00 0.00 0.00 0.00 0.00 0.00 0.00 0.00 0.00 0.00 0.00 0.00
0.00 0.00 0.00 0.00 0.00 0.00 0.00 0.00 0.00 0.00 0.00 0.00 0.00 0.00 0.00 0.00 0.00 0.00 0.00 0.00 0.00 0.00
0.00 0.00 0.00 0.00 0.00 0.00 0.00 0.00 0.00 0.00 0.00 0.00 0.00 0.00 0.00 0.00 0.00 0.00 0.00 0.00 0.00 0.00
0.00 0.00 0.00 0.00 0.00 0.00 0.00 0.00 0.00 0.00 0.00 0.00 0.00 0.00 0.00 0.00 0.00 0.00 0.00 0.00 0.00 0.00
0.00 0.00 0.00 0.00 0.00 0.00 0.00 0.00 0.00 0.00 0.00 0.00 0.00 0.00 0.00 0.00 0.00 0.00 0.00 0.00 0.00 0.00
0.00 0.00 0.00 0.00 0.00 0.00 0.00 0.00 0.00 0.00 0.00 0.00 0.00 0.00 0.00 0.00 0.00 0.00 0.00 0.00 0.00 0.00
0.00 0.00 0.00 0.00 0.00 0.00 0.00 0.00 0.00 0.00 0.00 0.00 0.00 0.00 0.00 0.00 0.00 0.00 0.00 0.00 0.00 0.00
0.00 0.00 0.00 0.00 0.00 0.00 0.00 0.00 0.00 0.00 0.00 0.00 0.00 0.00 0.00 0.00 0.00 0.00 0.00 0.00 0.00 0.00
0.00 0.00 0.00 0.00 0.00 0.00 0.00 0.00 0.00 0.00 0.00 0.00 0.00 0.00 0.00 0.00 0.00 0.00 0.00 0.00 0.00 0.00
0.00 0.00 0.00 0.00 0.00 0.00 0.00 0.00 0.00 0.00 0.00 0.00 0.00 0.00 0.00 0.00 0.00 0.00 0.00 0.00 0.00 0.00
MSLP
1016.68 1016.37 1016.12 1015.87 1015.70 1015.46 1015.34 1015.29 1015.44 1015.47 1015.40 1015.33 1015.33 1015.26 1015.16 1015.02 1014.86 1014.78 1014.58 1014.32 1014.14 1014.00
1016.67 1016.38 1016.03 1015.81 1015.70 1015.54 1015.47 1015.43 1015.43 1015.39 1015.35 1015.31 1015.29 1015.21 1015.08 1014.92 1014.75 1014.62 1014.44 1014.30 1014.15 1014.02
1016.60 1016.36 1016.04 1015.75 1015.50 1015.40 1015.33 1015.38 1015.34 1015.29 1015.24 1015.16 1015.08 1015.00 1014.92 1014.73 1014.54 1014.42 1014.22 1014.09 1013.97 1013.87
1016.46 1016.22 1015.90 1015.72 1015.43 1015.28 1015.19 1015.04 1015.01 1014.95 1014.95 1014.93 1014.84 1014.73 1014.63 1014.42 1014.25 1014.12 1013.89 1013.75 1013.63 1013.50
1016.46 1016.17 1015.75 1015.48 1015.32 1015.18 1015.02 1014.90 1014.83 1014.76 1014.70 1014.61 1014.50 1014.44 1014.39 1014.22 1014.07 1013.92 1013.68 1013.45 1013.34 1013.18
1016.52 1016.20 1015.79 1015.43 1015.18 1014.94 1014.78 1014.63 1014.50 1014.52 1014.45 1014.35 1014.31 1014.26 1014.16 1014.04 1013.85 1013.68 1013.53 1013.39 1013.26 1013.05
1016.67 1016.45 1016.05 1015.67 1015.29 1014.94 1014.64 1014.38 1014.20 1014.11 1014.05 1013.99 1013.94 1013.88 1013.77 1013.68 1013.54 1013.37 1013.20 1013.06 1012.95 1012.78
1016.68 1016.39 1016.03 1015.69 1015.38 1015.09 1014.82 1014.58 1014.41 1014.15 1013.88 1013.70 1013.59 1013.45 1013.34 1013.26 1013.08 1012.85 1012.62 1012.56 1012.53 1012.33
1016.39 1016.14 1015.90 1015.68 1015.44 1015.11 1014.82 1014.57 1014.46 1014.23 1014.01 1013.73 1013.41 1013.36 1013.39 1013.22 1012.78 1012.52 1012.28 1011.97 1011.76 1011.58
1016.05 1015.90 1015.75 1015.60 1015.31 1014.98 1014.75 1014.53 1014.18 1013.97 1013.94 1013.66 1013.34 1013.27 1013.09 1012.78 1012.31 1012.03 1011.83 1011.62 1011.33 1011.19
1015.80 1015.70 1015.57 1015.37 1015.09 1014.80 1014.55 1014.34 1014.18 1013.86 1013.59 1013.47 1012.98 1012.93 1012.76 1012.53 1011.92 1011.44 1011.26 1011.28 1011.18 1011.00
1015.46 1015.33 1015.21 1014.96 1014.65 1014.51 1014.35 1014.10 1013.88 1013.76 1013.48 1013.18 1012.54 1012.24 1012.16 1012.14 1011.62 1011.21 1010.78 1010.49 1010.51 1010.38
1015.09 1015.03 1014.72 1014.50 1014.21 1014.08 1013.98 1013.75 1013.57 1013.31 1013.26 1013.03 1012.42 1011.83 1011.66 1011.55 1011.18 1010.58 1010.24 1009.97 1009.83 1009.74
1014.38 1014.27 1014.13 1013.96 1013.67 1013.54 1013.39 1013.19 1012.86 1012.58 1012.34 1012.13 1011.90 1011.38 1011.28 1011.18 1010.93 1010.34 1009.82 1009.56 1009.25 1008.99
Thickness
5579 5577 5575 5572 5570 5569 5567 5566 5563 5560 5559 5557 5555 5554 5555 5556 5556 5556 5557 5558 5559 5560
5572 5570 5570 5567 5565 5563 5561 5558 5556 5554 5553 5552 5551 5550 5550 5550 5551 5552 5552 5553 5553 5553
5566 5564 5563 5562 5561 5558 5556 5553 5551 5549 5547 5546 5545 5544 5543 5544 5545 5545 5546 5545 5545 5545
5561 5559 5559 5557 5556 5553 5551 5550 5547 5545 5543 5541 5540 5539 5539 5538 5538 5538 5539 5539 5538 5537
5553 5553 5553 5553 5551 5549 5547 5545 5543 5540 5538 5536 5535 5533 5532 5531 5530 5529 5529 5530 5529 5528
5545 5545 5546 5546 5545 5544 5542 5541 5538 5534 5532 5531 5529 5526 5524 5522 5521 5521 5519 5518 5516 5516
5535 5534 5535 5535 5535 5535 5534 5533 5532 5529 5526 5524 5521 5518 5516 5514 5512 5511 5509 5507 5505 5504
5525 5524 5524 5524 5523 5522 5521 5520 5518 5517 5516 5514 5511 5509 5506 5503 5501 5500 5499 5496 5494 5492
5515 5514 5512 5511 5509 5509 5507 5505 5502 5500 5499 5498 5497 5494 5490 5487 5487 5485 5483 5483 5482 5481
5505 5503 5500 5497 5494 5493 5490 5488 5488 5485 5481 5480 5480 5476 5474 5473 5473 5471 5468 5467 5466 5464
5490 5487 5484 5481 5478 5476 5474 5471 5468 5467 5466 5462 5463 5459 5456 5454 5456 5457 5454 5449 5446 5445
5475 5472 5468 5466 5463 5460 5457 5454 5451 5448 5446 5444 5445 5445 5440 5436 5436 5435 5435 5435 5431 5429
5460 5456 5454 5450 5448 5444 5440 5436 5433 5430 5424 5421 5423 5423 5421 5419 5419 5421 5419 5417 5417 5414
5447 5443 5439 5436 5432 5428 5424 5420 5417 5415 5411 5407 5404 5404 5400 5397 5396 5398 5402 5401 5400 5399